User: anonymous   Login
Location: Gönnheim
(49.4488°N, 8.2383°E)
Time: 02:05:17
(UTC+00:00)
Language:

Cosmos 2150 Rocket - Orbit

View from above orbital plane
View from above orbital plane
View from above satellite
View from above satellite

Ground track
Ground track

The orbit data is extracted from the following two-line orbital elements,

1 21419U 91041B   25191.60376892  .00000101  00000-0  44299-4 0  9995
2 21419  74.0409 309.6619 0041071 238.7275 120.9852 14.35085656782382
Epoch (UTC): 10 July 2025 14:29:25
Eccentricity: 0.0041071
inclination: 74.0409°
perigee height: 745 km
apogee height: 804 km
right ascension of ascending node: 309.6619°
argument of perigee: 238.7275°
revolutions per day: 14.35085656
mean anomaly at epoch: 120.9852°
orbit number at epoch: 78238

The dashed part of the orbit path shows where the satellite is in the earth's shadow,  

DLR